TimeCDT,TemperatureF,Dew PointF,Humidity,Sea Level PressureIn,VisibilityMPH,Wind Direction,Wind SpeedMPH,Gust SpeedMPH,PrecipitationIn,Events,Conditions,WindDirDegrees,DateUTC
12:15 AM,25.5,17.4,71,30.34,10.0,North,6.9,-,N/A,,Overcast,350,2013-03-26 05:15:00
12:35 AM,25.3,16.5,69,30.33,10.0,NNW,9.2,-,N/A,,Overcast,340,2013-03-26 05:35:00
12:55 AM,25.2,16.7,70,30.33,10.0,North,6.9,-,N/A,,Overcast,350,2013-03-26 05:55:00
1:15 AM,24.4,17.2,74,30.34,10.0,NNW,3.5,-,N/A,,Overcast,330,2013-03-26 06:15:00
1:35 AM,21.9,15.8,77,30.34,10.0,NNW,3.5,-,N/A,,Scattered Clouds,330,2013-03-26 06:35:00
1:55 AM,18.3,13.8,83,30.34,10.0,NW,3.5,-,N/A,,Clear,310,2013-03-26 06:55:00
2:15 AM,17.6,13.6,84,30.33,10.0,WNW,5.8,-,N/A,,Clear,300,2013-03-26 07:15:00
2:35 AM,17.6,13.1,83,30.33,10.0,Calm,Calm,-,N/A,,Clear,0,2013-03-26 07:35:00
2:55 AM,15.3,11.7,86,30.33,10.0,Calm,Calm,-,N/A,,Clear,0,2013-03-26 07:55:00
3:15 AM,15.8,12.2,86,30.33,10.0,Calm,Calm,-,N/A,,Clear,0,2013-03-26 08:15:00
3:35 AM,14.5,10.8,85,30.33,10.0,Calm,Calm,-,N/A,,Clear,0,2013-03-26 08:35:00
3:55 AM,14.0,10.9,88,30.33,10.0,Calm,Calm,-,N/A,,Mostly Cloudy,0,2013-03-26 08:55:00
4:15 AM,14.0,10.9,88,30.33,10.0,Calm,Calm,-,N/A,,Scattered Clouds,0,2013-03-26 09:15:00
4:35 AM,12.9,10.2,89,30.32,10.0,Calm,Calm,-,N/A,,Clear,0,2013-03-26 09:35:00
4:55 AM,12.6,9.9,89,30.32,10.0,Calm,Calm,-,N/A,,Clear,0,2013-03-26 09:55:00
5:15 AM,11.8,9.0,88,30.32,10.0,Calm,Calm,-,N/A,,Clear,0,2013-03-26 10:15:00
5:35 AM,11.3,8.6,89,30.32,10.0,Calm,Calm,-,N/A,,Clear,0,2013-03-26 10:35:00
5:55 AM,12.0,9.5,90,30.32,10.0,Calm,Calm,-,N/A,,Clear,0,2013-03-26 10:55:00
6:15 AM,11.1,8.4,89,30.32,10.0,Calm,Calm,-,N/A,,Clear,0,2013-03-26 11:15:00
6:35 AM,10.9,8.2,89,30.33,10.0,Calm,Calm,-,N/A,,Clear,0,2013-03-26 11:35:00
6:55 AM,10.4,7.7,89,30.33,10.0,Calm,Calm,-,N/A,,Clear,0,2013-03-26 11:55:00
7:15 AM,10.6,7.9,89,30.33,10.0,Calm,Calm,-,N/A,,Clear,0,2013-03-26 12:15:00
7:35 AM,11.1,8.4,89,30.34,10.0,SW,3.5,-,N/A,,Clear,230,2013-03-26 12:35:00
7:55 AM,12.4,9.9,90,30.34,10.0,Calm,Calm,-,N/A,,Clear,0,2013-03-26 12:55:00
8:15 AM,14.0,11.7,90,30.34,10.0,Calm,Calm,-,N/A,,Clear,0,2013-03-26 13:15:00
8:35 AM,15.6,13.1,90,30.34,10.0,Calm,Calm,-,N/A,,Clear,0,2013-03-26 13:35:00
8:55 AM,17.6,14.9,89,30.34,10.0,Calm,Calm,-,N/A,,Clear,0,2013-03-26 13:55:00
9:15 AM,20.3,17.6,89,30.34,10.0,Calm,Calm,-,N/A,,Clear,0,2013-03-26 14:15:00
9:35 AM,22.1,18.9,87,30.34,10.0,Calm,Calm,-,N/A,,Clear,0,2013-03-26 14:35:00
9:55 AM,23.7,19.6,84,30.34,10.0,Calm,Calm,-,N/A,,Scattered Clouds,0,2013-03-26 14:55:00
10:15 AM,25.2,19.4,79,30.33,10.0,Calm,Calm,-,N/A,,Mostly Cloudy,0,2013-03-26 15:15:00
10:35 AM,26.4,18.0,70,30.33,10.0,Calm,Calm,-,N/A,,Mostly Cloudy,0,2013-03-26 15:35:00
10:55 AM,27.9,18.7,68,30.33,10.0,WNW,4.6,-,N/A,,Mostly Cloudy,290,2013-03-26 15:55:00
11:15 AM,29.1,18.0,63,30.33,10.0,SW,4.6,-,N/A,,Mostly Cloudy,220,2013-03-26 16:15:00
11:35 AM,28.9,17.2,62,30.33,10.0,WSW,3.5,-,N/A,,Scattered Clouds,240,2013-03-26 16:35:00
11:55 AM,30.6,17.8,59,30.32,10.0,West,4.6,-,N/A,,Scattered Clouds,260,2013-03-26 16:55:00
12:15 PM,30.6,17.1,57,30.32,10.0,Calm,Calm,-,N/A,,Scattered Clouds,0,2013-03-26 17:15:00
12:35 PM,31.8,17.6,56,30.32,10.0,WSW,3.5,-,N/A,,Clear,240,2013-03-26 17:35:00
12:55 PM,32.5,17.6,54,30.31,10.0,SSW,5.8,-,N/A,,Clear,200,2013-03-26 17:55:00
1:15 PM,33.6,17.8,52,30.30,10.0,South,5.8,-,N/A,,Clear,180,2013-03-26 18:15:00
1:35 PM,35.1,17.4,49,30.28,10.0,Calm,Calm,-,N/A,,Clear,0,2013-03-26 18:35:00
1:55 PM,35.1,17.4,49,30.28,10.0,South,4.6,-,N/A,,Clear,180,2013-03-26 18:55:00
2:15 PM,35.6,16.7,46,30.27,10.0,Calm,Calm,-,N/A,,Clear,0,2013-03-26 19:15:00
2:35 PM,37.0,17.2,45,30.26,10.0,SE,3.5,-,N/A,,Clear,140,2013-03-26 19:35:00
2:55 PM,38.1,16.5,42,30.26,10.0,South,4.6,-,N/A,,Clear,190,2013-03-26 19:55:00
3:15 PM,39.6,14.9,37,30.25,10.0,SSW,4.6,-,N/A,,Clear,200,2013-03-26 20:15:00
3:35 PM,40.1,15.4,37,30.24,10.0,South,3.5,-,N/A,,Clear,190,2013-03-26 20:35:00
3:55 PM,40.3,15.8,37,30.23,10.0,South,8.1,-,N/A,,Clear,180,2013-03-26 20:55:00
4:15 PM,40.6,14.2,34,30.22,10.0,SSW,5.8,-,N/A,,Clear,200,2013-03-26 21:15:00
4:35 PM,41.2,14.2,33,30.22,10.0,SSE,5.8,-,N/A,,Clear,150,2013-03-26 21:35:00
4:55 PM,41.4,14.4,33,30.22,10.0,SSE,8.1,-,N/A,,Clear,160,2013-03-26 21:55:00
5:15 PM,41.2,16.2,36,30.21,10.0,SSE,5.8,-,N/A,,Clear,160,2013-03-26 22:15:00
5:35 PM,41.4,16.2,36,30.20,10.0,South,6.9,-,N/A,,Clear,180,2013-03-26 22:35:00
5:55 PM,41.9,16.7,36,30.20,10.0,SSE,8.1,-,N/A,,Clear,160,2013-03-26 22:55:00
6:15 PM,41.2,16.9,38,30.19,10.0,South,5.8,-,N/A,,Clear,170,2013-03-26 23:15:00
6:35 PM,40.3,16.5,38,30.19,10.0,SSE,9.2,-,N/A,,Clear,150,2013-03-26 23:35:00
6:55 PM,39.0,18.1,43,30.19,10.0,SSE,9.2,-,N/A,,Clear,160,2013-03-26 23:55:00
7:15 PM,37.6,20.1,49,30.20,10.0,SSE,6.9,-,N/A,,Clear,160,2013-03-27 00:15:00
7:35 PM,36.9,19.9,50,30.20,10.0,SSE,8.1,-,N/A,,Clear,150,2013-03-27 00:35:00
7:55 PM,34.5,20.3,56,30.20,10.0,SSE,6.9,-,N/A,,Clear,150,2013-03-27 00:55:00
8:15 PM,33.4,20.8,60,30.20,10.0,SSE,9.2,-,N/A,,Clear,150,2013-03-27 01:15:00
8:35 PM,33.4,21.0,60,30.20,10.0,SE,9.2,-,N/A,,Clear,140,2013-03-27 01:35:00
8:55 PM,33.1,21.2,62,30.21,10.0,SE,9.2,-,N/A,,Clear,140,2013-03-27 01:55:00
9:15 PM,32.2,21.9,66,30.21,10.0,SE,9.2,-,N/A,,Clear,130,2013-03-27 02:15:00
9:35 PM,32.2,22.1,66,30.21,10.0,SE,8.1,-,N/A,,Clear,140,2013-03-27 02:35:00
9:55 PM,32.2,22.3,67,30.22,10.0,SE,6.9,-,N/A,,Clear,140,2013-03-27 02:55:00
10:15 PM,32.0,22.5,68,30.21,10.0,SE,9.2,-,N/A,,Clear,140,2013-03-27 03:15:00
10:35 PM,32.0,22.1,67,30.22,10.0,SE,11.5,-,N/A,,Clear,140,2013-03-27 03:35:00
10:55 PM,32.0,21.7,66,30.22,10.0,SE,10.4,-,N/A,,Clear,140,2013-03-27 03:55:00
11:15 PM,32.0,21.7,66,30.22,10.0,SE,10.4,-,N/A,,Clear,140,2013-03-27 04:15:00
11:35 PM,32.0,21.6,65,30.22,10.0,SE,11.5,-,N/A,,Clear,140,2013-03-27 04:35:00
11:55 PM,31.1,21.6,68,30.22,10.0,SE,10.4,-,N/A,,Clear,130,2013-03-27 04:55:00